COSMOS 1275 DEB, 12669

Orbit data source: Space-Track

COSMOS 1275 DEB, 12669 is space debris in LEO originally from a launch on Thu, 04 Jun 1981 UTC launched from the Plesetsk Missile And Space Complex (PKMTR). Debris objects in space refer to the collection of defunct objects orbiting the Earth. Examples of debris include non-operational satellites, rocket bodies, and fragments generated from explosions, collisions, or faulty payload assembly.

Loading next visibility...
Identifier
12669, 1981-053Z
Orbit
LEO
Country
Flag of CISCIS
Related business
Manufacturer
Unknown
Mission
Spacecraft
Bus & Motor
Unknown
Mass
Unknown
Launch date (UTC)
1981-06-04 (45 years ago)
Launch vehicle
Unknown
Launch site
Plesetsk Missile And Space Complex (PKMTR)
Object type
Payload
Rocket body
Debris
Shape & HBR
Unknown shape, 0.2 m
Radar Cross Section
Medium (>0.1 m² and <1 m²)

Expand to show TLE details & history
Last TLE update: 2 days ago

TLE from 2 days ago
0 COSMOS 1275 DEB
1 12669U 81053Z   26171.42510236  .00001424  00000-0  86076-3 0  9992
2 12669  82.9998 169.3124 0072822 142.4898  11.1845 14.04561271265165
Epoch: 2026-06-20T10:12Z
TLE epoch observation values (Epoch: 2026-06-20T10:12:08.843Z)
Latitude
25.98633°
Longitude
-75.77744°
Altitude
829.394 km
Speed
7.467 km/s
True Right ascension
23h 03m 35s
True Declination
25° 51' 09"
Sunlit
Object was in daylight at epoch
Visualization orbit readout
Latitude
Unknown
Longitude
Unknown
Altitude
Unknown
Speed
Unknown
Apparent Right ascension
Unknown
Apparent Declination
Unknown
Sunlit
N/A
Visualization observer readout
Local Sidereal Time
16:05:33
Azimuth
Unknown
Elevation
Unknown
Doppler factor
Unknown
Orbital elements
Apogee altitude
927.968 km
Perigee altitude
822.329 km
Semi-major axis
7,253.286 km
Eccentricity
0.00728
Inclination
82.9998°
RAAN
169.3124°
Arg. of periapsis
142.4898°
True anomaly
11.34782°
Mean anomaly
11.1845°
Eccentric anomaly
11.26601°
Mean motion
3.51351 °/min
Orbital period
102.46 mins
BSTAR
0.00086076
Loading maneuver chart data...
Computing Atmospheric mass density...
Loading historical data...
Loading historical data...
Loading historical data...
Loading historical data...
Loading historical data...
Loading historical data...
Loading historical data...

Documentation

Showing up to 5 results
|